Location: Champignolles
(47.0543°N, 4.5663°E)
Time: 23:10:57
(UTC+00:00)

N. Korean satellite - Pass Details

Date: 08 December 2021
Orbit: 447 x 491 km, 97.3° (Epoch: 21 January)

Event Time Altitude Azimuth Distance (km) Brightness Sun altitude
Rises 04:29:06 0° 21° (NNE) 2,463 10.3 -27.2°
Reaches altitude 10° 04:31:18 10° 32° (NNE) 1,584 9.4 -26.8°
Maximum altitude 04:34:21 31° 97° (E) 808 8.2 -26.3°
Drops below altitude 10° 04:37:24 10° 162° (SSE) 1,573 9.4 -25.8°
Sets 04:39:34 0° 172° (S) 2,442 10.3 -25.4°
